User: anonymous   Login
Location: Boncourt
(49.6160°N, 3.9448°E)
Time: 06:52:58
(UTC+00:00)
Language:

CZ-4 R/B - Orbit

View from above orbital plane
View from above orbital plane
View from above satellite
View from above satellite

Ground track
Ground track

The orbit data is extracted from the following two-line orbital elements,

1 29507U 06046C   23157.40433213  .00002975  00000-0  21510-3 0  9992
2 29507  97.6868 190.6874 0045356 116.5571 244.0315 15.03995635908027
Epoch (UTC): 06 June 2023 09:42:14
Eccentricity: 0.0045356
inclination: 97.6868°
perigee height: 523 km
apogee height: 586 km
right ascension of ascending node: 190.6874°
argument of perigee: 116.5571°
revolutions per day: 15.03995635
mean anomaly at epoch: 244.0315°
orbit number at epoch: 90802

The dashed part of the orbit path shows where the satellite is in the earth's shadow,  

DLR